Starlink 30855

operational
NORAD ID: 58222 Int'l Des: 2023-170 Owner: SPXS Country: US Constellation: starlink
LEOCIRCULAR

About Starlink 30855

Description loading...

Live Position

Loading 3D Globe...

Upcoming Passes

Altitude History

Altitude vs Time

uPlot chart will show altitude changes over time

Two-Line Element Set

1 58222U 23170S 25303.71263654 .00000055 00000-0 19126-4 0 9992
2 58222 43.0010 182.4926 0000911 262.5375 97.5364 15.02533281110727
Epoch: Oct 30, 2025 • Age: 9 hours

Current Status

Altitude 564.9 km
Velocity 7.58 km/s
Sub-Earth Point -25.04°S, 73.22°E
Launch Date Nov 4, 2023
Age 1.9 years
Type internet

Technical Details

Classification Payload
Mass 730.00 kg
Dry Mass 700.00 kg
Total Mass 730.00 kg
Length 0.30 m
Diameter 4.10 m
Span 29.00 m
Shape Box + pan
Manufacturer SPXS
Bus Type Starlink V2M
Phase Status In Orbit
Owner/State SPXS/US

Large Constellations

Loading constellations...